Regional Weather Roundup
Issued by NWS

Home | Current Version | Previous Version | Text Only | Print | Product List | Glossary On
Versions: 1 2 3 4 5 6 7 8 9 10 11 12 13 14 15 16 17 18 19 20 21 22 23 24 25 26 27 28 29 30 31 32 33 34 35 36 37 38 39 40 41 42 43 44 45 46 47 48 49 50
616
ASUS43 KMKX 291811
RWRWI

WISCONSIN REGIONAL WEATHER ROUNDUP
NATIONAL WEATHER SERVICE MILWAUKEE/SULLIVAN WI
100 PM CDT FRI APR 29 2016

NOTE: "FAIR" INDICATES FEW OR NO CLOUDS BELOW 12,000 FEET WITH NO
SIGNIFICANT WEATHER AND/OR OBSTRUCTIONS TO VISIBILITY.

WIZ001-002-006>008-014>016-023>028-291900-
NORTHWEST WISCONSIN

CITY           SKY/WX    TMP DP  RH WIND       PRES   REMARKS
SUPERIOR ARPT  SUNNY     48  32  53 E9        30.20S
6HR MIN TEMP:  31; 6HR MAX TEMP:  50;

ASHLAND        SUNNY     51  36  56 N15       30.19F
6HR MIN TEMP:  30; 6HR MAX TEMP:  52;

HAYWARD        SUNNY     55  29  36 N10G20    30.15S
6HR MIN TEMP:  29; 6HR MAX TEMP:  55;

SIREN          SUNNY     55  27  34 E9G17     30.15S
6HR MIN TEMP:  31; 6HR MAX TEMP:  55;

CUMBERLAND     SUNNY     52  28  40 NE6       30.14S
RICE LAKE      SUNNY     55  29  37 NW8G18    30.15S
6HR MIN TEMP:  33; 6HR MAX TEMP:  55;

CHETEK         MOSUNNY   55  36  48 CALM      30.12S
6HR MIN TEMP:  36; 6HR MAX TEMP:  55;

LADYSMITH      MOSUNNY   55  34  43 N5        30.14S
6HR MIN TEMP:  38; 6HR MAX TEMP:  56;

EAU CLAIRE     PTSUNNY   54  36  50 E5        30.13S
6HR MIN TEMP:  40; 6HR MAX TEMP:  54;

MENOMONIE      MOSUNNY   56  56  99 NW3       30.13F
6HR MIN TEMP:  39; 6HR MAX TEMP:  56;

NEW RICHMOND   SUNNY     53  33  46 N10       30.14F
6HR MIN TEMP:  34; 6HR MAX TEMP:  53; 6HR PCP:  0.01;

OSCEOLA        SUNNY     54  34  47 NE10G16   30.17S
6HR MIN TEMP:  34; 6HR MAX TEMP:  54;

$$

WIZ003>005-009-010-017-018-291900-
NORTH CENTRAL WISCONSIN

CITY           SKY/WX    TMP DP  RH WIND       PRES   REMARKS
MANITOWISH WTR PTSUNNY   51  31  46 NW6       30.12R
6HR MIN TEMP:  37; 6HR MAX TEMP:  53;

ARBOR VITAE    PTSUNNY   53  33  45 N3        30.13R
6HR MIN TEMP:  39; 6HR MAX TEMP:  55;

WOODRUFF       PTSUNNY   53  33  45 N3        30.13R
6HR MIN TEMP:  39; 6HR MAX TEMP:  55;

RHINELANDER    CLOUDY    51  32  48 CALM      30.13R
6HR MIN TEMP:  38; 6HR MAX TEMP:  51;

EAGLE RIVER    PTSUNNY   51  31  45 N8        30.12S
LAND O LAKES   MOSUNNY   52  31  43 CALM      30.13S
6HR MIN TEMP:  39; 6HR MAX TEMP:  52;

PHILLIPS       CLOUDY    52  32  46 CALM      30.12R
6HR MIN TEMP:  38; 6HR MAX TEMP:  54;

TOMAHAWK       PTSUNNY   51  33  51 N5        30.13R
6HR MIN TEMP:  37; 6HR MAX TEMP:  52;

MEDFORD        PTSUNNY   49  36  61 E6        30.13F
6HR MIN TEMP:  36; 6HR MAX TEMP:  51;

MERRILL        MOSUNNY   54  36  50 NE8       30.12S
$$

WIZ029-030-035-036-043>047-291900-
CENTRAL WISCONSIN

CITY           SKY/WX    TMP DP  RH WIND       PRES   REMARKS
WAUSAU         PTSUNNY   54  35  48 E8        30.11R
6HR MIN TEMP:  40; 6HR MAX TEMP:  56;

MOSINEE        PTSUNNY   52  36  54 E8        30.14R
MARSHFIELD     PTSUNNY   51  37  58 N7G18     30.12R
6HR MIN TEMP:  39; 6HR MAX TEMP:  52;

STEVENS POINT  CLOUDY    51  33  49 NE9G16    30.13R
6HR MIN TEMP:  36; 6HR MAX TEMP:  51;

WAUPACA        CLOUDY    55  34  44 NE6       30.14R
6HR MIN TEMP:  41; 6HR MAX TEMP:  56;

WAUTOMA        NOT AVBL
WISC RAPIDS    CLOUDY    51  33  50 VRB3      30.14R
6HR MIN TEMP:  40; 6HR MAX TEMP:  51;

CAMP DOUGLAS   CLOUDY    50  45  81 NE8       30.13R
$$

WIZ011>013-019>022-031-037>040-048>050-291900-
NORTHEAST WISCONSIN

CITY           SKY/WX    TMP DP  RH WIND       PRES   REMARKS
ANTIGO         CLOUDY    52  32  46 CALM      30.12R
6HR MIN TEMP:  37; 6HR MAX TEMP:  52;

SHAWANO        CLOUDY    54  35  48 E9        30.13R
6HR MIN TEMP:  42; 6HR MAX TEMP:  54;

OCONTO         CLOUDY    48  29  47 E7        30.14R
6HR MIN TEMP:  41; 6HR MAX TEMP:  49;

STURGEON BAY   CLOUDY    48  27  43 E10       30.15R
6HR MIN TEMP:  39; 6HR MAX TEMP:  50;

GREEN BAY      PTSUNNY   53  31  42 NE15      30.13S
6HR MIN TEMP:  41; 6HR MAX TEMP:  53; 6HR PCP: TRACE;

MANITOWOC      PTSUNNY   49  32  52 N10G22    30.14R
6HR MIN TEMP:  38; 6HR MAX TEMP:  51; 6HR PCP: TRACE;

APPLETON       PTSUNNY   52  28  40 NE10G20   30.11R
CLINTONVILLE   CLOUDY    54  32  43 NE6       30.14R
OSHKOSH        CLOUDY    52  34  50 N8G16     30.12R
6HR MIN TEMP:  41; 6HR MAX TEMP:  52;

$$

WIZ032>034-041-042-053>061-291900-
SOUTHWEST WISCONSIN

CITY           SKY/WX    TMP DP  RH WIND       PRES   REMARKS
LA CROSSE      CLOUDY    51  36  56 VRB5      30.14S
6HR MIN TEMP:  42; 6HR MAX TEMP:  52;

SPARTA         CLOUDY    49  38  64 CALM      30.15R
6HR MIN TEMP:  38; 6HR MAX TEMP:  50;

VIROQUA        CLOUDY    47  38  69 NE10G17   30.13S
6HR MIN TEMP:  37; 6HR MAX TEMP:  49;

BOSCOBEL       PTSUNNY   53  36  52 NE8       30.12F
6HR MIN TEMP:  41; 6HR MAX TEMP:  54;

PRAIRIE DU CHI CLOUDY    50  35  55 N7        30.12S
6HR MIN TEMP:  41; 6HR MAX TEMP:  51;

PLATTEVILLE    CLOUDY    48  39  72 NE9       30.11S
6HR MIN TEMP:  40; 6HR MAX TEMP:  50;

$$

WIZ056-057-062-063-064-067-068-291900-
SOUTH CENTRAL WISCONSIN

CITY           SKY/WX    TMP DP  RH WIND       PRES   REMARKS
REEDSBURG      CLOUDY    47  37  66 E5        30.13R
6HR MIN TEMP:  37; 6HR MAX TEMP:  48;

BARABOO/DELLS  CLOUDY    48  35  61 NE7       30.13R
6HR MIN TEMP:  37; 6HR MAX TEMP:  49;

LONE ROCK      CLOUDY    51  38  60 E8        30.13F
6HR MIN TEMP:  40; 6HR MAX TEMP:  51;

MINERAL POINT  CLOUDY    50  37  62 NE8       30.11R
MADISON        PTSUNNY   50  39  66 NE12      30.10F
6HR MIN TEMP:  39; 6HR MAX TEMP:  49;

MIDDLETON      CLOUDY    49  40  71 NE12G17   30.11F
6HR MIN TEMP:  40; 6HR MAX TEMP:  49;

WATERTOWN      CLOUDY    49  40  72 E7        30.13R
6HR MIN TEMP:  39; 6HR MAX TEMP:  49;

MONROE         CLOUDY    45  37  76 NE7       30.11R
JANESVILLE     CLOUDY    48  39  71 NE12      30.11R
$$

WIZ051-052-058>065-066-070>072-291900-
SOUTHEAST WISCONSIN

CITY           SKY/WX    TMP DP  RH WIND       PRES   REMARKS
MILWAUKEE      PTSUNNY   45  37  73 N16       30.10F
6HR MIN TEMP:  40; 6HR MAX TEMP:  46;

WAUKESHA       MOSUNNY   45  36  70 NE9       30.13S
MILWAUKEE/TIMM CLOUDY    45  34  65 NE7       30.15
RACINE         MOSUNNY   47  37  68 NE16      30.11F
6HR MIN TEMP:  41; 6HR MAX TEMP:  47;

BURLINGTON     CLOUDY    44  37  78 E8        30.11S
6HR MIN TEMP:  39; 6HR MAX TEMP:  44;

KENOSHA        PTSUNNY   48  39  71 NE10      30.10F
6HR MIN TEMP:  41; 6HR MAX TEMP:  48;

FOND DU LAC    CLOUDY    50  36  58 N6        30.13R
6HR MIN TEMP:  41; 6HR MAX TEMP:  50;

SHEBOYGAN      MOSUNNY   49  33  54 NE12      30.13S
6HR MIN TEMP:  39; 6HR MAX TEMP:  50;

WEST BEND      CLOUDY    46  32  57 E9        30.15R
JUNEAU         CLOUDY    46  35  66 CALM      30.15R
6HR MIN TEMP:  38; 6HR MAX TEMP:  46;

$$

LSZ147-162-291900-
LAKE SUPERIOR

STATION/POSITION TIME  TEMP    WIND        PRES    WAVE
                       AIR SEA DIR/SP/G            HT/PER
                 (UTC) (F)     (DEG/KT/KT) (MB)    (FT/S)
W MID LAKE BUOY  1750   38 37   90/  8/ 10 1023.5F   1
DEVILS ISLAND    1800   38      50/  8/  8 1023.6F
SAXON HARBOR     1700   39      10/  6/  8 1022.4S
$$

LMZ867-665-643>646-291900-
LAKE MICHIGAN

STATION/POSITION TIME  TEMP    WIND        PRES    WAVE
                       AIR SEA DIR/SP/G            HT/PER
                 (UTC) (F)     (DEG/KT/KT) (MB)    (FT/S)
CHAMBERS ISLAND  1700   43      20/  8/ 10 1020.7F
N MID LAKE BUOY  1750   39 39  330/  6/  8 1020.6F   1
NORTHPORT PIER   1700   41     330/  5/  7 1020.7F
ALGOMA LAKESHORE 1730  C1F1C2F2C3F3C4F4C5F5C6F6C7F7C8M1C9M2Ca!



USA.gov is the U.S. government's official web portal to all federal, state and local government web resources and services.